Home   Weather   Białystok   Past weeks

Flag for Poland Past Weather in Białystok, Poland — Yesterday and Last 2 Weeks

Now
65 °F

Overcast.


Feels Like: 65 °F
Forecast: 61 / 84 °F
Wind: 2 mph from North

Location: Bialystok

Current Time: Aug 17, 2017 at 11:43:17 am

Latest Report: Aug 17, 2017 at 10:00 am


Visibility: 18 mi

Pressure: 30.17 "Hg

Humidity: 85%

Dew Point: 60 °F

Location of BiałystokLocation

Past Weather in Białystok — Graph

°F

Białystok Temperature Yesterday

Maximum temperature yesterday: 77 °F (at 4:00 pm)
Minimum temperature yesterday: 49 °F (at 5:00 am)
Average temperature yesterday: 63 °F

High & Low Weather Summary for the Past Weeks

 TemperatureHumidityPressure
High86 °F (Aug 11, 5:00 pm)100% (Aug 8, 6:00 am)30.33 "Hg (Aug 8, 6:00 am)
Low46 °F (Aug 8, 5:00 am)41% (Aug 15, 2:00 pm)29.78 "Hg (Aug 4, 7:00 pm)
Average66 °F77%30.06 "Hg
* Reported Aug 2 10:00 am — Aug 17 10:00 am, Białystok. Weather by CustomWeather, © 2017

Note: Actual official high and low records may vary slightly from our data, if they occured in-between our weather recording intervals... More about our weather records

Advertising

Białystok Weather History for the Previous 24 Hours

Scroll right to see more
 ConditionsComfort  
Time TempWeatherWind HumidityBarometerVisibility
10:00 am
Thu, Aug 17
65 °FOvercast.2 mph85%30.17 "Hg18 mi
9:00 am63 °FOvercast.2 mph82%30.16 "Hg17 mi
8:00 am61 °FOvercast.No wind84%30.16 "Hg15 mi
7:00 am58 °FOvercast.1 mph98%30.15 "Hg11 mi
6:00 am55 °FOvercast.No wind99%30.15 "Hg9 mi
5:00 am53 °FFog.1 mph97%30.14 "Hg9 mi
4:00 am54 °FClear.1 mph94%30.12 "Hg7 mi
3:00 am53 °FFog.No wind98%30.12 "Hg6 mi
2:00 am53 °FFog.No wind98%30.12 "Hg9 mi
1:00 am53 °FFog.No wind97%30.13 "Hg12 mi
12:00 am54 °FFog.No wind96%30.13 "Hg12 mi
11:00 pm
Wed, Aug 16
55 °FFog.1 mph96%30.14 "Hg9 mi
10:00 pm57 °FFog.No wind95%30.13 "Hg9 mi
9:00 pm58 °FPassing clouds.No wind93%30.14 "Hg12 mi
8:00 pm62 °FFog.No wind90%30.13 "Hg19 mi
7:00 pm68 °FPassing clouds.No wind78%30.11 "Hg25 mi
6:00 pm74 °FPassing clouds.1 mph54%30.11 "Hg22 mi
5:00 pm77 °FPassing clouds.2 mph44%30.11 "Hg19 mi
4:00 pm77 °FPassing clouds.2 mph42%30.12 "Hg22 mi
3:00 pm77 °FPassing clouds.2 mph42%30.12 "Hg19 mi
2:00 pm76 °FPassing clouds.1 mph43%30.14 "Hg22 mi
1:00 pm75 °FPassing clouds.2 mph44%30.15 "Hg22 mi
12:00 pm73 °FPassing clouds.3 mph46%30.15 "Hg22 mi
11:00 am73 °FPartly sunny.1 mph47%30.17 "Hg19 mi
Weather by CustomWeather, © 2017

See weather overviewHow to use our weather pages